CAPE
114 142 243 357 421 496 720 913 1061 1191 1250 1321 1367 1526 1755 1786 1924 2004 2006 2008 2103 2041 2008 2060 2136 2192 2289 2374 2404 2437 2464 2344 2047 1952 2081 2156 1661 0 0 0 0 0 0 0 0 0 2 22 36 56 16 56 56 19 24 132 128 137 67 69 43 54 3
94 123 207 312 411 471 682 899 1064 1222 1316 1380 1451 1562 1810 1960 2009 2089 2138 2124 2176 2208 2174 2206 2246 2278 2299 2328 2327 2314 2283 2179 2049 2099 2237 2182 1549 0 0 0 0 0 0 0 0 0 4 6 22 14 6 102 103 27 28 72 125 108 93 30 31 16 23
42 106 197 312 414 494 650 862 1060 1235 1391 1474 1530 1598 1783 1998 2088 2146 2200 2224 2244 2280 2268 2251 2291 2322 2313 2307 2288 2274 2250 2192 2162 2219 2286 2225 1309 0 0 0 0 0 0 0 0 0 3 5 6 0 4 24 102 24 12 15 76 58 47 20 24 45 2
35 110 201 318 436 534 636 822 1028 1204 1382 1521 1605 1662 1756 1932 2092 2170 2216 2243 2255 2288 2310 2274 2255 2286 2286 2261 2213 2242 2267 2252 2241 2272 2365 2157 568 0 0 0 0 0 0 0 0 0 2 1 6 0 296 8 31 29 2 4 2 13 20 12 7 0 0
17 86 192 316 463 560 651 792 972 1159 1343 1495 1607 1694 1754 1876 2019 2128 2195 2235 2245 2272 2297 2294 2248 2233 2221 2180 2141 2188 2243 2268 2282 2379 2475 1836 254 0 0 0 0 0 0 0 0 0 3 1 0 0 12 17 6 2 6 0 0 0 0 1 10 5 4
10 44 107 306 468 598 694 794 949 1128 1300 1451 1576 1673 1758 1841 1965 2078 2170 2226 2266 2269 2285 2315 2310 2261 2198 2151 2130 2114 2186 2253 2348 2524 2471 1451 104 0 0 0 0 0 0 0 0 0 0 0 1 0 0 1 3 0 0 0 0 0 0 0 1 0 0
11 69 123 241 430 612 728 828 951 1121 1272 1411 1537 1635 1722 1813 1936 2065 2154 2229 2287 2301 2298 2322 2338 2276 2208 2146 2158 2139 2179 2293 2450 2580 2266 1210 38 0 0 0 0 0 0 0 0 0 0 0 0 0 0 0 17 10 5 0 0 0 0 0 0 0 0
10 37 101 166 332 530 715 837 947 1098 1258 1397 1514 1617 1690 1786 1890 2008 2127 2220 2300 2329 2318 2294 2289 2246 2208 2134 2110 2131 2197 2285 2485 2589 2186 1130 0 0 0 0 0 0 0 0 0 0 0 0 0 0 0 0 0 3 0 0 0 0 0 0 0 0 0
2 23 72 141 256 422 633 809 950 1052 1194 1358 1504 1608 1685 1757 1830 1945 2076 2189 2272 2332 2353 2312 2244 2172 2125 2077 2079 2121 2200 2274 2475 2515 2146 1077 412 0 0 0 0 0 0 0 0 0 0 0 0 0 0 0 1 0 0 0 0 0 0 0 0 0 0
0 3 22 118 220 360 532 754 930 1039 1148 1266 1423 1543 1640 1702 1756 1857 1999 2123 2224 2307 2371 2349 2246 2148 2084 2044 1982 2005 2065 2208 2411 2504 1958 794 0 0 0 0 0 0 0 0 0 0 0 0 0 0 0 0 4 0 0 0 0 0 0 0 0 0 0
1 10 16 27 217 342 510 691 879 1028 1129 1219 1304 1410 1540 1624 1688 1758 1882 2024 2154 2260 2335 2348 2277 2163 2094 2031 1935 1890 1875 2110 2324 2266 1556 370 0 0 0 0 0 0 0 0 0 0 0 0 0 0 0 0 0 0 0 0 0 0 0 0 0 0 0
1 3 8 11 136 337 506 654 802 947 1096 1186 1239 1308 1412 1517 1604 1681 1762 1884 2034 2156 2221 2253 2245 2159 2106 1968 1878 1754 1803 2006 2196 2102 1853 0 0 0 0 0 0 0 0 0 0 0 0 0 0 0 0 0 0 0 0 0 0 0 0 0 0 0 0
2 1 4 5 44 285 452 606 742 879 986 1086 1160 1231 1314 1407 1528 1614 1690 1766 1858 1981 2069 2130 2150 2142 2085 1998 1764 1636 1682 1996 2242 1921 844 0 0 0 0 0 0 0 0 0 0 0 0 0 0 0 0 0 0 0 0 0 0 0 0 0 0 0 0
102 1 0 135 224 260 394 559 677 774 870 962 1022 1104 1205 1304 1424 1521 1607 1686 1716 1872 1972 2062 2120 2135 2106 2029 1894 1639 1700 2007 1722 721 127 0 0 0 0 0 0 0 0 0 0 0 0 0 0 0 0 0 0 0 0 0 0 0 0 0 0 0 0
17 51 99 0 68 69 320 475 603 704 758 812 861 932 1035 1154 1268 1380 1498 1610 1720 1870 1978 2046 2081 2098 2089 2045 1971 1868 1662 1499 1149 196 48 234 231 165 0 0 0 0 0 0 0 0 0 0 0 0 0 0 0 0 0 0 0 0 0 0 0 0 0
9 93 57 92 277 312 358 398 510 598 641 671 719 771 860 974 1104 1299 1500 1646 1770 1879 1970 2041 2076 2084 2071 2044 2001 1861 1776 1677 1474 844 237 114 134 96 39 16 6 0 0 0 0 0 0 0 0 0 0 0 0 0 0 0 0 6 0 0 4 0 0
46 170 205 258 306 344 359 380 434 500 564 594 620 647 684 768 991 1333 1564 1698 1795 1868 1940 2001 2048 2079 2076 2024 1947 1931 1880 1794 1633 1189 811 378 0 0 10 6 5 0 0 0 0 0 0 0 0 0 0 0 0 0 0 0 0 0 0 0 0 54 26
186 186 232 278 327 360 403 422 432 444 498 525 548 566 589 623 858 1313 1594 1714 1799 1863 1918 1984 2033 2062 2058 2018 1964 1904 1867 1872 1859 1626 844 423 60 0 22 0 0 0 3 0 0 0 0 0 0 0 0 0 0 0 0 0 0 0 126 183 199 204 219
215 221 250 29 270 391 422 451 461 480 486 490 532 548 564 614 908 1225 1491 1659 1787 1854 1897 1952 1992 2037 2044 1994 1960 1936 1906 1823 1741 1655 830 759 240 242 136 2 3 2 1 1 1 0 0 0 0 0 0 0 0 0 0 0 0 0 96 193 262 279 286
255 258 134 194 332 368 410 425 463 494 533 550 584 602 676 794 970 1138 1323 1526 1657 1783 1858 1914 1975 2024 2026 1993 1949 1928 1911 1756 1708 1524 1063 484 245 0 4 0 11 2 94 88 0 0 0 0 0 0 0 0 0 0 2 2 6 50 93 185 261 192 150
291 296 314 330 360 367 402 436 529 622 679 702 757 870 865 914 1034 1126 1265 1412 1520 1636 1740 1804 1894 1922 1963 1945 1912 1916 1870 1818 1696 1568 862 488 173 6 0 0 0 0 0 0 0 0 0 0 0 0 0 1 333 334 217 21 6 74 134 274 339 447 371
247 270 302 359 436 476 501 587 658 731 853 883 963 963 911 940 1109 1223 1316 1383 1477 1530 1589 1674 1725 1803 1820 1847 1828 1817 1758 1676 1644 1492 654 447 310 150 12 0 0 0 0 0 0 0 0 0 164 86 9 68 419 339 92 95 3 86 238 324 495 583 395
202 273 385 461 522 681 694 681 781 874 1212 1269 1226 1153 1076 1054 1125 1286 1360 1418 1504 1540 1594 1620 1673 1714 1748 1787 1764 1701 1656 1598 1641 1422 863 590 396 33 8 0 0 0 0 0 0 0 0 0 0 94 302 400 392 263 96 122 170 223 379 515 638 558 279
232 311 448 566 610 610 552 442 569 788 1151 1404 1451 1506 1445 1397 1374 1352 1368 1444 1502 1552 1630 1652 1706 1733 1770 1775 1729 1710 1711 1691 1515 1328 960 688 437 68 3 0 0 0 1 2 0 0 2 8 310 410 480 488 462 419 134 162 263 445 648 654 519 308 204
205 301 270 192 0 134 794 1114 1175 1329 1506 1516 1580 1620 1690 1666 1610 1537 1522 1523 1536 1570 1614 1658 1691 1742 1771 1778 1770 1764 1767 1697 1364 1015 717 478 84 50 24 0 0 0 0 4 9 30 36 76 244 400 526 591 591 456 169 261 539 605 535 367 280 200 127
668 1564 1908 1344 883 928 1290 1313 1248 1389 1474 1519 1620 1654 1659 1694 1651 1590 1563 1517 1534 1578 1594 1628 1672 1692 1716 1743 1734 1694 1723 1415 1244 887 599 427 76 67 15 0 0 0 1 18 34 67 50 86 368 471 570 614 517 377 355 536 543 495 391 273 186 144 44
2210 2261 2074 1808 1608 1578 1580 1592 1521 1489 1709 1704 1728 1590 1584 1594 1612 1579 1528 1542 1553 1559 1559 1577 1593 1620 1632 1650 1646 1626 1629 1468 1251 1029 641 262 166 124 29 0 99 108 228 274 270 286 292 370 477 538 564 475 320 463 497 494 506 473 384 353 338 291 254
2228 2175 2238 2354 2294 2054 1937 1941 1800 1654 1702 1756 1698 1646 1609 1518 1484 1442 1410 1433 1500 1499 1461 1463 1476 1514 1700 1788 1753 1670 1569 1426 1226 968 541 121 78 2 202 214 261 346 421 435 444 512 627 702 678 694 778 769 804 777 777 745 636 591 489 400 337 320 171
2198 2300 2468 2521 2267 2073 1918 1935 1921 1961 1962 1780 1734 1664 1623 1498 1405 1387 1383 1406 1420 1407 1416 1456 1511 1642 1780 1785 1674 1592 1533 1398 1028 685 179 28 5 180 310 372 444 526 564 546 603 682 796 941 966 930 964 963 866 814 837 774 586 387 265 330 322 68 0
1755 2025 2268 2370 2548 2379 2134 2101 1897 2028 2003 1931 1814 1692 1592 1468 1380 1353 1352 1420 1379 1472 1543 1555 1598 1717 1721 1664 1533 1440 1384 1337 1018 520 440 442 416 429 468 453 511 632 693 822 950 1070 1159 1228 1192 1222 1203 1054 956 874 691 499 410 368 330 243 0 0 0
931 1132 1286 1583 2139 2176 2591 2450 2464 2224 2080 1932 1914 1848 1699 1563 1450 1428 1394 1378 1449 1564 1566 1562 1576 1608 1512 1390 1278 1234 1285 1236 851 603 590 552 481 526 530 315 386 582 732 986 1224 1315 1358 1376 1419 1370 1316 1257 1043 820 618 571 510 290 0 0 0 0 0
637 787 1100 1359 1576 1773 1960 2201 2282 2227 2098 2010 1939 1908 1834 1683 1584 1520 1500 1470 1563 1597 1586 1524 1456 1320 1107 1012 1094 1234 1226 998 689 718 760 772 767 648 460 469 567 708 754 1018 1446 1714 1766 1730 1616 1466 1304 1056 802 664 636 606 336 0 0 0 0 0 0
637 696 818 832 1146 1442 1682 1766 1898 1895 1903 1959 1874 1900 1906 1856 1760 1691 1639 1545 1540 1558 1484 1364 1168 1014 830 810 1042 1182 1076 796 897 931 964 960 890 748 711 672 662 798 984 1204 1664 1861 1762 1640 1539 1340 1080 849 698 641 611 363 0 0 0 0 0 0 0
532 811 744 793 1062 1108 1354 1520 1682 1779 1811 1887 1863 1940 1962 1947 1925 1814 1735 1669 1614 1484 1324 1207 1198 1070 876 765 933 1033 933 902 1012 1050 1133 1169 1166 1080 958 843 1016 1084 1172 1474 1850 1776 1628 1510 1394 1165 982 831 698 561 143 0 0 0 0 0 0 0 0
783 744 842 873 1052 1109 1260 1385 1469 1554 1640 1775 1770 1835 1850 1815 1799 1764 1683 1652 1587 1450 1278 1370 1499 1315 952 754 739 802 936 967 1139 964 1022 1130 1129 1035 1010 938 1007 1187 1486 1821 1703 1627 1615 1492 1320 1068 976 722 378 0 0 0 0 0 0 0 0 0 0
680 710 744 758 690 947 1065 1176 1258 1381 1469 1516 1587 1564 1518 1471 1488 1538 1602 1607 1540 1346 1266 1596 1665 1407 1022 837 832 1020 995 927 865 831 822 790 712 682 702 816 971 1358 1652 1758 1679 1535 1303 1115 1022 956 632 162 0 0 0 0 0 0 0 0 0 0 0
696 746 820 757 736 708 893 1010 1066 1144 1224 1234 1182 1167 1110 1070 1085 1224 1417 1508 1269 1085 1286 1487 1670 1596 1250 1051 1161 1019 802 758 645 607 558 576 632 667 790 985 1164 1756 1830 1720 1503 1257 1073 1071 936 594 228 0 0 0 0 0 0 0 0 0 0 0 0
909 982 976 893 844 780 736 824 926 970 975 930 895 879 860 869 905 1003 1152 1083 932 992 1070 1054 1163 1528 1402 1322 1192 974 851 687 516 508 477 586 652 764 993 1463 1841 1819 1618 1285 1087 1017 983 931 546 270 140 0 0 0 0 0 0 0 0 0 0 0 0
Wind_Speed
15 16 15 16 16 18 18 17 17 17 17 17 17 19 20 21 22 23 23 23 22 20 20 21 22 24 25 24 24 25 26 27 27 28 27 27 28 nan nan nan nan nan nan nan nan nan nan nan nan nan nan nan nan nan nan 24 24 24 nan nan nan nan nan
nan 16 15 15 15 15 16 17 18 18 17 17 18 19 19 20 21 22 22 23 21 20 21 21 22 22 24 24 24 25 26 27 27 27 26 27 28 nan nan nan nan nan nan nan nan nan nan nan nan nan nan 26 26 nan nan nan 25 25 nan nan nan nan nan
nan 18 16 16 17 16 18 18 19 20 21 20 20 19 19 19 20 22 22 21 20 19 19 21 21 22 23 24 25 25 26 27 28 28 28 28 30 nan nan nan nan nan nan nan nan nan nan nan nan nan nan nan 27 nan nan nan nan nan nan nan nan nan nan
nan 18 16 17 18 19 21 23 26 25 24 25 24 24 22 19 18 19 19 19 19 18 19 19 21 23 24 25 26 27 28 28 29 30 30 31 33 nan nan nan nan nan nan nan nan nan nan nan nan nan 27 nan nan nan nan nan nan nan nan nan nan nan nan
nan nan 14 15 17 19 20 22 24 26 26 25 24 23 21 18 17 16 16 17 18 20 20 20 21 22 22 25 26 28 30 31 31 31 33 33 34 nan nan nan nan nan nan nan nan nan nan nan nan nan nan nan nan nan nan nan nan nan nan nan nan nan nan
nan nan 14 16 18 20 22 24 26 28 28 26 25 23 20 19 18 18 18 18 18 18 19 20 22 23 25 27 29 30 31 32 34 35 36 36 37 nan nan nan nan nan nan nan nan nan nan nan nan nan nan nan nan nan nan nan nan nan nan nan nan nan nan
nan nan 13 16 18 21 22 22 23 24 24 24 23 22 20 18 19 19 18 18 18 20 21 22 23 24 25 29 30 34 35 36 36 37 38 39 nan nan nan nan nan nan nan nan nan nan nan nan nan nan nan nan nan nan nan nan nan nan nan nan nan nan nan
nan nan 13 17 19 21 20 20 21 22 21 19 19 20 21 19 18 18 19 20 20 20 21 23 23 25 29 32 35 38 38 39 39 40 40 41 nan nan nan nan nan nan nan nan nan nan nan nan nan nan nan nan nan nan nan nan nan nan nan nan nan nan nan
nan nan nan 18 20 20 19 20 22 24 25 24 25 24 23 20 20 21 22 22 22 23 24 25 26 28 31 33 36 38 39 41 41 41 43 42 43 nan nan nan nan nan nan nan nan nan nan nan nan nan nan nan nan nan nan nan nan nan nan nan nan nan nan
nan nan nan 17 19 19 19 19 21 21 19 18 17 17 18 19 19 20 21 22 23 24 26 27 29 32 34 35 36 39 41 42 41 42 43 44 nan nan nan nan nan nan nan nan nan nan nan nan nan nan nan nan nan nan nan nan nan nan nan nan nan nan nan
nan nan nan nan 20 20 21 21 22 21 18 16 16 17 18 19 20 21 22 23 24 25 27 29 32 35 37 38 40 41 42 44 45 46 45 46 nan nan nan nan nan nan nan nan nan nan nan nan nan nan nan nan nan nan nan nan nan nan nan nan nan nan nan
nan nan nan nan 21 22 20 19 19 17 15 13 15 17 18 19 20 22 23 24 25 26 28 32 35 37 40 42 43 43 46 46 45 45 44 nan nan nan nan nan nan nan nan nan nan nan nan nan nan nan nan nan nan nan nan nan nan nan nan nan nan nan nan
nan nan nan nan nan 18 19 17 17 17 16 16 16 17 17 19 21 22 23 24 25 27 30 32 35 37 41 43 44 44 48 48 50 52 52 nan nan nan nan nan nan nan nan nan nan nan nan nan nan nan nan nan nan nan nan nan nan nan nan nan nan nan nan
19 nan nan 20 20 20 19 20 19 17 16 15 15 16 16 17 20 22 23 24 26 28 30 32 36 40 42 45 45 47 50 52 52 52 52 nan nan nan nan nan nan nan nan nan nan nan nan nan nan nan nan nan nan nan nan nan nan nan nan nan nan nan nan
nan nan nan nan nan nan 19 20 20 19 18 16 16 16 17 18 21 23 23 24 27 29 31 35 38 41 44 46 47 52 56 56 53 49 nan 48 50 49 nan nan nan nan nan nan nan nan nan nan nan nan nan nan nan nan nan nan nan nan nan nan nan nan nan
nan nan nan nan 19 20 20 20 21 21 22 21 20 19 20 21 23 25 25 26 28 30 32 37 40 43 45 48 51 56 56 55 52 51 49 47 46 nan nan nan nan nan nan nan nan nan nan nan nan nan nan nan nan nan nan nan nan nan nan nan nan nan nan
nan 23 22 20 21 22 21 21 21 24 25 26 25 24 24 24 25 25 26 28 31 32 33 38 41 44 47 50 53 55 55 53 53 54 50 45 nan nan nan nan nan nan nan nan nan nan nan nan nan nan nan nan nan nan nan nan nan nan nan nan nan nan nan
25 24 22 22 24 25 23 22 24 26 27 29 29 29 27 28 29 29 29 31 32 31 33 37 41 46 48 50 52 54 54 53 55 57 53 44 nan nan nan nan nan nan nan nan nan nan nan nan nan nan nan nan nan nan nan nan nan nan 32 34 36 39 40
27 23 20 nan 26 25 24 25 26 27 29 32 34 34 31 32 33 31 30 31 31 34 37 41 45 48 49 49 50 51 51 52 56 58 49 40 38 31 32 nan nan nan nan nan nan nan nan nan nan nan nan nan nan nan nan nan nan nan nan 35 36 39 41
27 25 25 26 27 27 27 28 29 30 33 35 38 39 37 37 37 36 35 37 39 41 42 45 47 49 49 48 48 49 51 54 58 60 49 39 39 nan nan nan nan nan nan nan nan nan nan nan nan nan nan nan nan nan nan nan nan nan nan 36 37 39 42
30 30 30 31 31 30 30 32 34 35 36 38 41 40 40 38 38 40 41 43 44 44 46 47 49 49 50 50 49 51 54 57 61 58 46 43 43 nan nan nan nan nan nan nan nan nan nan nan nan nan nan nan 32 30 29 nan nan nan 36 37 39 40 43
32 34 33 31 33 33 35 36 38 40 39 40 42 41 41 42 44 45 44 45 46 47 48 51 51 50 51 52 53 54 57 61 62 56 46 45 44 43 nan nan nan nan nan nan nan nan nan nan 32 nan nan nan 31 31 nan nan nan nan 37 40 41 44 45
37 34 33 32 35 36 36 38 41 41 43 43 43 45 44 45 47 47 48 47 47 50 51 52 53 53 55 55 55 57 60 63 62 56 48 47 49 nan nan nan nan nan nan nan nan nan nan nan nan nan 29 30 31 31 nan 29 33 37 39 42 45 47 44
36 34 34 36 36 39 41 42 44 44 46 48 48 47 47 48 48 49 50 50 51 54 55 56 58 58 58 57 56 58 62 64 61 56 51 48 48 nan nan nan nan nan nan nan nan nan nan nan 29 27 28 30 31 31 31 32 35 42 44 46 48 45 45
40 38 36 36 nan 44 43 43 45 47 50 52 52 48 48 48 49 51 51 53 55 56 58 59 60 60 60 59 57 58 62 63 59 55 51 46 nan nan nan nan nan nan nan nan nan nan nan nan 30 28 30 30 31 34 35 36 40 48 47 48 46 44 43
40 39 40 41 44 45 45 45 50 50 51 50 49 49 49 49 50 52 53 55 56 58 59 60 60 60 61 59 57 57 60 60 57 54 49 45 nan nan nan nan nan nan nan nan nan nan nan nan 33 32 32 35 36 36 37 40 44 48 50 48 46 45 nan
44 45 47 48 49 48 50 50 50 49 47 47 50 50 51 52 54 53 55 57 57 57 58 59 60 61 60 57 56 56 58 56 54 52 48 45 42 36 nan nan nan 27 20 22 25 27 29 32 34 34 34 36 35 37 40 42 46 46 48 45 45 46 46
49 51 49 49 50 53 54 53 52 50 48 48 51 54 55 56 56 56 57 58 58 58 59 59 59 58 56 55 55 55 54 53 51 50 49 47 nan nan 33 34 31 24 22 25 28 29 30 32 35 35 34 34 35 38 42 43 45 46 46 45 46 47 47
50 50 48 49 51 50 53 53 52 50 50 52 54 55 56 57 59 59 58 58 58 58 57 56 55 54 53 53 54 52 52 51 51 50 47 nan nan 39 32 33 34 31 29 31 33 33 32 32 33 33 32 32 34 39 42 43 43 44 43 48 48 nan nan
51 51 51 51 52 51 52 53 52 52 52 53 53 55 57 59 62 62 59 57 56 56 54 52 50 51 51 52 51 50 50 50 49 48 47 47 46 41 35 36 37 33 31 34 37 37 35 31 30 31 33 35 36 39 42 43 43 43 44 48 nan nan nan
54 55 54 54 52 51 52 52 54 56 55 54 55 56 58 60 62 61 57 53 52 52 50 49 48 48 49 49 48 48 48 48 48 47 47 47 46 41 35 35 35 31 33 38 40 41 39 33 31 33 36 38 40 43 43 44 44 44 nan nan nan nan nan
49 52 54 53 52 52 54 56 57 57 54 56 59 61 61 59 57 54 50 48 45 45 46 46 45 46 46 46 46 46 46 47 47 47 47 47 43 38 34 34 35 35 39 41 42 44 41 37 35 37 39 39 42 46 46 47 46 nan nan nan nan nan nan
47 50 54 53 50 53 56 58 54 51 52 59 62 61 57 53 49 47 47 45 43 42 43 44 44 45 45 45 45 45 45 46 46 46 46 44 39 35 33 34 36 37 40 41 44 45 42 39 39 41 42 43 46 48 48 48 nan nan nan nan nan nan nan
50 51 53 52 54 55 56 55 51 50 51 52 51 49 46 43 43 45 45 44 42 42 43 43 43 44 44 45 45 44 43 44 46 48 45 41 38 37 37 36 35 34 37 42 47 47 42 41 42 43 45 47 49 50 49 nan nan nan nan nan nan nan nan
53 56 57 58 56 56 56 57 56 54 50 44 42 40 40 39 41 42 43 41 41 41 41 41 42 43 45 45 45 44 42 43 45 48 46 43 42 40 36 32 31 36 42 44 43 41 43 44 44 45 48 51 51 nan nan nan nan nan nan nan nan nan nan
47 48 50 50 49 47 47 47 46 45 43 41 40 40 38 38 38 39 39 39 39 40 39 40 42 43 44 44 45 44 44 45 47 48 47 44 40 39 39 42 42 41 43 44 43 44 43 45 47 49 51 52 nan nan nan nan nan nan nan nan nan nan nan
34 36 37 37 36 33 33 32 35 37 38 38 38 36 35 34 35 36 35 36 39 40 40 41 42 42 42 44 44 46 47 49 48 46 44 41 40 40 43 44 47 50 50 49 49 49 51 53 55 56 52 nan nan nan nan nan nan nan nan nan nan nan nan
34 34 34 34 33 30 28 27 29 31 32 33 33 32 32 32 34 35 35 38 40 41 41 42 42 44 44 45 49 51 51 50 47 44 42 42 43 46 48 49 50 49 51 50 49 51 54 55 55 53 50 nan nan nan nan nan nan nan nan nan nan nan nan
Wind_Direction
335 341 338 338 339 344 347 346 339 330 327 322 318 315 308 303 304 302 304 308 312 308 306 310 314 312 317 316 315 314 311 308 306 308 306 306 305 nan nan nan nan nan nan nan nan nan nan nan nan nan nan nan nan nan nan 319 320 319 nan nan nan nan nan
nan 337 340 341 346 352 354 347 340 333 329 328 325 324 314 308 301 301 307 310 313 314 310 313 315 315 315 316 314 313 311 309 308 308 306 303 302 nan nan nan nan nan nan nan nan nan nan nan nan nan nan 311 313 nan nan nan 319 320 nan nan nan nan nan
nan 326 336 337 342 350 348 341 342 338 335 331 330 328 330 324 314 314 311 309 316 317 312 316 317 314 313 315 315 315 311 308 310 311 311 308 306 nan nan nan nan nan nan nan nan nan nan nan nan nan nan nan 310 nan nan nan nan nan nan nan nan nan nan
nan 324 334 333 337 340 340 343 347 345 342 339 337 339 339 335 322 315 313 315 317 315 319 318 314 316 317 318 315 311 312 313 314 311 307 302 302 nan nan nan nan nan nan nan nan nan nan nan nan nan 307 nan nan nan nan nan nan nan nan nan nan nan nan
nan nan 310 315 328 328 332 342 345 342 342 341 340 340 340 338 325 311 309 308 310 318 322 317 311 313 313 313 310 310 314 315 310 304 301 297 296 nan nan nan nan nan nan nan nan nan nan nan nan nan nan nan nan nan nan nan nan nan nan nan nan nan nan
nan nan 314 318 323 327 336 346 345 343 342 338 337 337 339 340 334 335 329 320 317 314 306 306 316 320 320 317 312 310 308 307 304 302 300 299 298 nan nan nan nan nan nan nan nan nan nan nan nan nan nan nan nan nan nan nan nan nan nan nan nan nan nan
nan nan 308 311 318 325 338 344 341 342 341 339 335 333 330 331 341 345 332 332 329 326 326 327 327 321 317 308 312 312 313 309 306 305 300 299 nan nan nan nan nan nan nan nan nan nan nan nan nan nan nan nan nan nan nan nan nan nan nan nan nan nan nan
nan nan 306 309 315 324 335 334 334 336 335 329 326 330 336 344 344 342 340 341 337 332 330 331 325 322 318 317 319 320 317 314 310 306 304 302 nan nan nan nan nan nan nan nan nan nan nan nan nan nan nan nan nan nan nan nan nan nan nan nan nan nan nan
nan nan nan 306 312 321 326 324 326 332 336 338 344 349 352 351 350 349 348 343 336 335 338 333 328 321 318 321 322 322 318 313 311 308 308 306 299 nan nan nan nan nan nan nan nan nan nan nan nan nan nan nan nan nan nan nan nan nan nan nan nan nan nan
nan nan nan 294 301 305 308 309 316 323 332 340 352 355 356 352 349 345 341 336 332 337 337 330 325 322 320 319 320 318 313 310 307 307 308 305 nan nan nan nan nan nan nan nan nan nan nan nan nan nan nan nan nan nan nan nan nan nan nan nan nan nan nan
nan nan nan nan 291 294 291 301 320 336 343 352 360 1 356 351 346 340 335 329 330 333 331 326 320 316 315 314 314 313 311 312 314 313 308 302 nan nan nan nan nan nan nan nan nan nan nan nan nan nan nan nan nan nan nan nan nan nan nan nan nan nan nan
nan nan nan nan 278 284 306 315 321 326 337 347 352 352 349 345 340 336 330 328 325 322 318 318 314 315 312 311 313 316 317 316 311 301 290 nan nan nan nan nan nan nan nan nan nan nan nan nan nan nan nan nan nan nan nan nan nan nan nan nan nan nan nan
nan nan nan nan nan 294 287 297 323 332 329 334 339 340 340 339 338 333 327 324 319 314 311 309 310 312 312 314 319 320 315 302 288 285 290 nan nan nan nan nan nan nan nan nan nan nan nan nan nan nan nan nan nan nan nan nan nan nan nan nan nan nan nan
270 nan nan 265 274 292 313 319 322 325 324 319 327 333 334 332 332 330 325 322 313 308 306 305 311 315 316 318 319 314 302 298 305 311 312 nan nan nan nan nan nan nan nan nan nan nan nan nan nan nan nan nan nan nan nan nan nan nan nan nan nan nan nan
nan nan nan nan nan nan 302 314 319 324 322 323 318 325 327 321 323 319 316 312 310 308 311 308 311 315 316 318 314 307 314 322 324 319 nan 307 304 301 nan nan nan nan nan nan nan nan nan nan nan nan nan nan nan nan nan nan nan nan nan nan nan nan nan
nan nan nan nan 296 301 306 312 313 317 315 308 315 320 317 317 318 319 318 317 315 313 308 304 311 313 315 313 310 315 322 323 318 313 310 306 302 nan nan nan nan nan nan nan nan nan nan nan nan nan nan nan nan nan nan nan nan nan nan nan nan nan nan
nan 308 307 298 289 295 300 302 302 300 305 311 313 318 320 317 314 313 318 323 323 321 315 312 311 312 310 309 313 316 319 318 314 307 302 294 nan nan nan nan nan nan nan nan nan nan nan nan nan nan nan nan nan nan nan nan nan nan nan nan nan nan nan
300 299 296 292 291 291 294 298 299 303 310 310 307 309 312 314 313 314 325 327 327 321 311 313 313 312 312 313 313 316 318 315 310 305 302 299 nan nan nan nan nan nan nan nan nan nan nan nan nan nan nan nan nan nan nan nan nan nan 315 315 316 318 319
288 284 286 nan 286 293 297 300 301 301 298 298 305 307 304 301 304 314 319 321 317 305 312 317 320 320 319 316 316 317 317 310 306 306 308 298 289 286 286 nan nan nan nan nan nan nan nan nan nan nan nan nan nan nan nan nan nan nan nan 316 318 321 322
285 281 275 273 279 283 283 285 286 291 297 301 306 310 307 306 313 318 315 312 308 312 314 319 324 325 323 319 317 314 310 305 308 309 305 293 292 nan nan nan nan nan nan nan nan nan nan nan nan nan nan nan nan nan nan nan nan nan nan 315 317 320 319
280 281 283 281 280 281 284 287 288 293 298 302 302 300 299 303 309 307 307 309 311 313 315 320 322 323 321 317 310 308 307 306 309 310 311 307 310 nan nan nan nan nan nan nan nan nan nan nan nan nan nan nan 302 301 303 nan nan nan 315 317 318 319 316
280 281 282 281 282 282 285 290 294 295 298 295 295 297 299 304 303 305 307 307 311 313 317 319 319 318 314 311 308 308 309 308 309 314 315 308 310 310 nan nan nan nan nan nan nan nan nan nan 304 nan nan nan 299 300 nan nan nan nan 316 318 318 314 309
275 277 272 273 279 287 288 288 290 291 288 291 293 293 296 297 301 303 304 307 309 312 313 314 314 314 314 311 307 307 309 310 312 317 317 316 317 nan nan nan nan nan nan nan nan nan nan nan nan nan 296 298 299 303 nan 312 315 315 316 317 317 311 310
263 264 266 272 270 272 274 275 276 280 285 287 287 289 292 297 301 303 305 306 307 310 311 312 314 314 315 313 309 307 308 311 313 317 322 321 320 nan nan nan nan nan nan nan nan nan nan nan 294 293 295 299 301 305 310 312 312 314 315 317 317 313 312
258 260 262 264 nan 269 271 275 278 279 278 281 285 289 292 295 299 301 304 305 307 308 309 311 312 313 313 312 309 307 308 311 314 319 322 323 nan nan nan nan nan nan nan nan nan nan nan nan 296 294 293 296 297 300 306 310 306 307 312 314 313 312 312
256 257 255 257 258 264 267 270 271 271 276 282 287 290 292 294 297 300 302 303 303 304 305 309 310 309 309 306 305 306 309 312 316 319 321 324 nan nan nan nan nan nan nan nan nan nan nan nan 299 297 295 294 297 300 303 302 301 306 312 312 312 316 nan
253 254 255 257 259 262 264 263 266 269 275 282 287 288 290 293 295 299 298 298 298 301 302 303 304 306 304 302 302 306 310 311 315 318 321 324 325 319 nan nan nan 299 314 329 326 322 316 307 297 294 294 295 297 297 296 300 302 305 309 310 313 316 317
253 256 260 264 267 269 271 271 270 268 269 275 283 286 290 293 295 293 292 293 295 297 296 299 302 302 300 301 303 307 309 311 313 316 319 323 nan nan 304 293 290 291 309 323 327 327 320 305 295 293 293 294 296 296 297 300 304 305 307 311 314 317 318
253 259 261 262 262 264 271 273 274 274 276 279 285 288 290 292 292 289 288 291 293 292 294 296 298 298 298 299 302 305 307 308 312 313 314 nan nan 313 301 287 284 287 300 316 326 329 321 306 295 294 297 300 299 299 299 299 300 303 306 310 313 nan nan
253 256 258 259 264 269 272 273 273 274 275 278 283 286 287 291 292 290 289 291 290 289 290 292 294 293 296 299 301 302 304 306 308 309 311 316 314 311 299 288 284 287 298 310 319 324 319 305 295 295 300 303 303 301 299 298 300 304 309 308 nan nan nan
258 259 259 258 258 262 266 270 275 275 276 279 283 285 289 292 292 290 292 291 289 288 289 290 290 292 295 298 299 301 302 301 303 306 309 310 311 309 299 289 285 292 300 305 312 318 315 303 295 298 302 303 304 302 298 299 302 304 nan nan nan nan nan
258 261 263 263 262 264 267 270 274 278 282 284 285 285 287 289 290 290 290 289 287 287 287 289 291 294 296 297 298 299 299 301 303 305 309 312 312 308 298 292 289 295 296 299 305 309 307 298 294 297 301 304 303 301 301 302 304 nan nan nan nan nan nan
259 262 264 264 268 273 273 273 276 282 286 286 283 281 280 282 282 283 284 285 285 286 287 290 292 294 294 296 297 298 300 303 305 307 310 310 304 298 294 293 294 293 289 292 300 303 300 294 293 295 299 303 303 302 302 303 nan nan nan nan nan nan nan
264 263 264 267 272 275 275 276 282 286 286 284 280 276 275 277 279 281 283 282 284 285 287 290 293 294 295 296 296 297 300 302 306 307 304 301 297 292 287 287 291 291 290 294 299 301 297 291 292 296 301 303 304 304 303 nan nan nan nan nan nan nan nan
269 271 274 277 279 281 282 279 279 280 280 279 277 277 278 280 280 280 283 284 285 287 290 292 294 294 295 296 295 298 298 298 300 300 298 292 285 279 274 275 280 284 282 282 287 288 290 291 291 295 299 302 303 nan nan nan nan nan nan nan nan nan nan
273 275 276 279 279 277 277 277 276 274 275 277 277 279 281 282 281 281 282 285 288 290 292 292 292 293 295 295 296 296 297 297 296 296 297 296 291 286 278 272 275 277 285 288 283 282 281 285 293 297 298 295 nan nan nan nan nan nan nan nan nan nan nan
268 269 269 268 268 271 274 274 273 273 274 276 277 280 281 282 283 283 285 286 286 290 292 293 293 294 292 292 293 293 294 296 296 294 291 289 287 285 288 288 280 274 276 280 283 282 281 285 290 293 293 nan nan nan nan nan nan nan nan nan nan nan nan
265 266 267 270 273 274 270 265 264 268 271 274 277 279 280 280 281 284 285 285 286 289 291 293 293 293 292 291 289 291 292 293 294 293 291 288 287 289 290 289 288 283 277 277 277 277 280 284 287 289 290 nan nan nan nan nan nan nan nan nan nan nan nan